Location: Unspecified
(0.0000°N, 0.0000°E)
Time: 20:06:09
(UTC+00:00)

Courier 1B - All Passes

Search period start: 29 June 2016 00:00
Search period end: 09 July 2016 00:00
Orbit: 963 x 1209 km, 28.3° (Epoch: 28 June)

Date Brightness Start Highest point End Pass type
(mag) Time Alt. Az. Time Alt. Az. Time Alt. Az.
29 Jun - 00:19:34 10° WNW 00:24:30 21° NNW 00:29:40 10° NNE night (unlit)
29 Jun - 06:11:34 10° N 06:13:58 11° NNE 06:16:24 10° NE daylight
29 Jun - 08:02:31 10° NW 08:09:25 33° NNE 08:16:09 10° E daylight
29 Jun - 09:56:10 10° WNW 10:03:58 81° SSW 10:11:24 10° ESE daylight
29 Jun - 11:52:31 10° W 11:58:25 25° SSW 12:04:06 10° SSE daylight
29 Jun - 19:37:01 10° SSW 19:42:04 24° SSE 19:47:10 10° ESE visible
29 Jun - 21:29:40 10° WSW 21:36:13 87° SSE 21:43:04 10° ENE visible
29 Jun - 23:24:56 10° W 23:30:30 27° NNW 23:36:19 10° NNE night (unlit)
30 Jun - 07:09:05 10° NNW 07:15:17 25° NNE 07:21:26 10° ENE daylight
30 Jun - 09:02:09 10° NW 09:10:00 76° NNE 09:17:35 10° ESE daylight
30 Jun - 10:57:38 10° W 11:04:26 34° SSW 11:10:57 10° SE daylight
30 Jun - 12:58:23 10° SSW 12:59:30 10° SSW 13:00:36 10° SSW daylight
30 Jun - 18:44:07 10° SSW 18:48:10 17° SSE 18:52:13 10° ESE visible
30 Jun - 20:36:06 10° SW 20:42:29 61° SSE 20:49:04 10° ENE visible
30 Jun - 22:30:36 10° W 22:36:36 37° NNW 22:42:52 10° NE night (unlit)
01 Jul - 00:29:17 10° NW 00:31:35 12° NNW 00:33:56 10° N night (unlit)
01 Jul - 06:15:52 10° NNW 06:21:05 19° NNE 06:26:19 10° ENE daylight
01 Jul - 08:08:19 10° NW 08:16:01 57° NNE 08:23:32 10° ESE daylight
01 Jul - 10:03:02 10° WNW 10:10:27 47° SSW 10:17:34 10° SE daylight
01 Jul - 12:01:23 10° SW 12:05:17 15° SSW 12:09:07 10° S daylight
01 Jul - 17:51:40 10° S 17:54:10 12° SSE 17:56:39 10° SE daylight
01 Jul - 19:42:40 10° SW 19:48:45 43° SSE 19:54:56 10° E visible
01 Jul - 21:36:31 10° WSW 21:42:47 51° NNW 21:49:19 10° NE visible
01 Jul - 23:33:40 10° WNW 23:37:26 15° NNW 23:41:19 10° NNE night (unlit)
02 Jul - 05:22:58 10° N 05:26:48 14° NNE 05:30:42 10° NE visible
02 Jul - 07:14:39 10° NW 07:21:59 42° NNE 07:29:14 10° E daylight
02 Jul - 09:08:42 10° WNW 09:16:28 64° SSW 09:24:00 10° SE daylight
02 Jul - 11:05:45 10° WSW 11:11:08 20° SSW 11:16:23 10° SSE daylight
02 Jul - 18:49:21 10° SSW 18:54:59 30° SSE 19:00:35 10° E visible
02 Jul - 20:42:35 10° WSW 20:49:02 72° NNW 20:55:40 10° NE visible
02 Jul - 22:38:41 10° WNW 22:43:24 20° NNW 22:48:16 10° NNE night (unlit)
03 Jul - 04:31:09 10° N 04:32:28 10° NNE 04:33:48 10° NNE visible
03 Jul - 06:21:10 10° NNW 06:27:53 31° NNE 06:34:39 10° E daylight
03 Jul - 08:14:34 10° WNW 08:22:29 86° SSW 08:30:16 10° ESE daylight
03 Jul - 10:10:38 10° W 10:17:03 28° SSW 10:23:18 10° SSE daylight
03 Jul - 17:56:11 10° SSW 18:01:08 22° SSE 18:06:01 10° ESE daylight
03 Jul - 19:48:50 10° WSW 19:55:19 81° SSE 20:01:53 10° ENE visible
03 Jul - 21:44:04 10° W 21:49:29 27° NNW 21:55:03 10° NNE visible
04 Jul - 05:27:53 10° NNW 05:33:46 23° NNE 05:39:45 10° ENE visible
04 Jul - 07:20:40 10° NW 07:28:29 72° NNE 07:36:18 10° ESE daylight
04 Jul - 09:15:52 10° W 09:22:59 37° SSW 09:29:59 10° SE daylight
04 Jul - 11:15:20 10° SW 11:18:09 12° SSW 11:20:56 10° S daylight
04 Jul - 17:03:12 10° SSW 17:07:11 16° SSE 17:11:06 10° ESE daylight
04 Jul - 18:55:13 10° SW 19:01:37 57° SSE 19:07:58 10° ENE visible
04 Jul - 20:49:43 10° W 20:55:39 38° NNW 21:01:42 10° NE visible
04 Jul - 22:48:30 10° NW 22:50:27 11° NNW 22:52:24 10° N night (unlit)
05 Jul - 04:34:51 10° NNW 04:39:36 17° NNE 04:44:26 10° ENE visible
05 Jul - 06:26:57 10° NW 06:34:28 53° NNE 06:42:06 10° ESE daylight
05 Jul - 08:21:23 10° WNW 08:28:57 50° SSW 08:36:27 10° SE daylight
05 Jul - 10:19:14 10° WSW 10:23:54 17° SSW 10:28:29 10° SSE daylight
05 Jul - 16:10:35 10° S 16:13:07 12° SSE 16:15:36 10° SE daylight
05 Jul - 18:01:43 10° SW 18:07:53 40° SSE 18:13:54 10° E daylight
05 Jul - 19:55:36 10° WSW 20:01:54 53° NNW 20:08:14 10° NE visible
05 Jul - 21:52:45 10° WNW 21:56:22 15° NNW 22:00:03 10° N visible
06 Jul - 03:42:19 10° N 03:45:21 13° NNE 03:48:27 10° NE visible
06 Jul - 05:33:25 10° NW 05:40:26 39° NNE 05:47:39 10° E visible
06 Jul - 07:27:10 10° WNW 07:34:56 68° SSW 07:42:45 10° SE daylight
06 Jul - 09:23:51 10° WSW 09:29:42 22° SSW 09:35:28 10° SSE daylight
06 Jul - 17:08:20 10° SSW 17:14:03 29° SSE 17:19:36 10° E daylight
06 Jul - 19:01:38 10° WSW 19:08:12 76° NNW 19:14:39 10° NE visible
06 Jul - 20:57:43 10° WNW 21:02:24 21° NNW 21:07:09 10° NNE visible
07 Jul - 04:40:05 10° NNW 04:46:24 29° NNE 04:52:56 10° E visible
07 Jul - 06:33:11 10° WNW 06:40:56 90° NNE 06:48:51 10° ESE daylight
07 Jul - 08:28:53 10° W 08:35:33 30° SSW 08:42:11 10° SSE daylight
07 Jul - 10:30:39 10° SSW 10:31:04 10° SSW 10:31:28 10° SSW daylight
07 Jul - 16:15:03 10° SSW 16:20:09 22° SSE 16:25:04 10° ESE daylight
07 Jul - 18:07:49 10° SW 18:14:29 77° SSE 18:20:56 10° ENE daylight
07 Jul - 20:03:04 10° W 20:08:33 29° NNW 20:14:02 10° NNE visible
08 Jul - 03:46:58 10° NNW 03:52:19 21° NNE 03:57:51 10° ENE visible
08 Jul - 05:39:24 10° NW 05:46:57 67° NNE 05:54:46 10° ESE visible
08 Jul - 07:34:17 10° W 07:41:27 40° SSW 07:48:43 10° SE daylight
08 Jul - 09:33:03 10° SW 09:36:41 14° SSW 09:40:18 10° S daylight
08 Jul - 15:21:55 10° SSW 15:26:06 16° SSE 15:30:10 10° ESE daylight
08 Jul - 17:14:07 10° SW 17:20:44 54° SSE 17:27:04 10° ENE daylight
08 Jul - 19:08:40 10° W 19:14:46 40° NNW 19:20:46 10° NE visible
08 Jul - 21:07:25 10° NW 21:09:24 11° NNW 21:11:23 10° N visible
